Location: Hagen
(51.3456°N, 7.4557°E)
Time: 00:04:44
(UTC+01:00)

Envisat - Visible Passes

Search period start: 20 January 2018 00:00
Search period end: 30 January 2018 00:00
Orbit: 764 x 766 km, 98.2° (Epoch: 19 January)

Date Brightness Start Highest point End Pass type
(mag) Time Alt. Az. Time Alt. Az. Time Alt. Az.
20 Jan 4.5 18:07:49 14° ENE 18:09:33 16° NE 18:12:33 10° NNE visible
20 Jan 2.8 19:48:00 78° NE 19:48:00 78° NE 19:52:56 10° NNW visible
20 Jan 5.5 21:28:12 17° WNW 21:28:12 17° WNW 21:30:47 10° NW visible
21 Jan 5.8 07:47:11 10° NE 07:50:46 19° E 07:54:21 10° SE visible
21 Jan 3.3 19:10:37 40° E 19:11:13 42° ENE 19:16:00 10° N visible
21 Jan 4.6 20:50:48 32° W 20:50:48 32° W 20:54:57 10° NNW visible
22 Jan 4.1 18:33:12 20° E 18:34:48 23° ENE 18:38:47 10° N visible
22 Jan 3.3 20:13:23 65° WSW 20:13:26 65° WSW 20:18:31 10° NNW visible
22 Jan 6.0 21:53:34 10° W 21:53:34 10° W 21:54:02 10° WNW visible
23 Jan 4.7 17:56:11 10° E 17:58:35 14° NE 18:01:00 10° NNE visible
23 Jan 2.9 19:35:58 58° ESE 19:36:42 66° ENE 19:41:46 10° N visible
23 Jan 5.2 21:16:09 21° W 21:16:13 21° W 21:20:01 10° NW visible
24 Jan 5.9 07:36:29 10° NE 07:39:29 16° E 07:42:30 10° ESE visible
24 Jan 3.5 18:58:32 28° E 19:00:10 35° ENE 19:04:46 10° N visible
24 Jan 4.1 20:38:44 39° WSW 20:39:08 40° W 20:43:57 10° NNW visible
25 Jan 4.3 18:21:06 13° E 18:23:48 20° NE 18:27:26 10° N visible
25 Jan 3.0 20:01:17 58° S 20:02:17 79° WSW 20:07:24 10° NNW visible
25 Jan 5.8 21:41:28 13° W 21:42:10 13° W 21:44:26 10° WNW visible
26 Jan 4.8 17:46:03 10° ENE 17:47:38 11° NE 17:49:13 10° NNE visible
26 Jan 3.0 19:23:50 36° SE 19:25:37 54° ENE 19:30:35 10° N visible
26 Jan 4.9 21:04:02 24° WSW 21:04:58 25° W 21:09:10 10° NW visible
27 Jan 6.1 07:26:01 10° ENE 07:28:12 13° E 07:30:23 10° ESE visible
27 Jan 3.8 18:46:24 18° ESE 18:49:07 30° ENE 18:53:29 10° N visible
27 Jan 3.8 20:26:34 39° SW 20:27:57 49° W 20:32:54 10° NNW visible
28 Jan 4.4 18:09:38 10° E 18:12:49 17° NE 18:16:01 10° NNE visible
28 Jan 2.8 19:49:07 38° SSE 19:51:09 86° ENE 19:56:16 10° NNW visible
28 Jan 5.6 21:29:18 14° WSW 21:30:52 16° W 21:33:56 10° NW visible
29 Jan 3.2 19:11:39 22° SE 19:14:32 45° ENE 19:19:22 10° N visible
29 Jan 4.7 20:51:49 24° SW 20:53:43 31° W 20:58:13 10° NNW visible
